DW2917 Weather Reports


time (UTC)temp
C
wind
direction
speed
KPH
gust
KPH
rain 1hr
cm
rain 24hr
cm
rain mn
cm
humidity
%
barometer
mb
20260507110005 10 320 1.6 0.0 0.00 0.00 0.20 89 1011.4
20260507104504 10 322 3.2 0.0 0.00 0.00 0.20 90 1011.5
20260507103002 10 325 1.6 0.0 0.00 0.00 0.20 91 1011.3
20260507101521 10 321 1.6 0.0 0.00 0.00 0.20 91 1011.3
20260507100028 10 329 0.0 0.0 0.00 0.00 0.20 92 1010.9
20260507094513 10 328 0.0 0.0 0.00 0.00 0.20 92 1010.8
20260507093014 10 328 0.0 0.0 0.00 0.00 0.20 92 1011.1
20260507091511 10 329 0.0 0.0 0.00 0.00 0.20 91 1011.2
20260507090011 10 329 0.0 0.0 0.00 0.00 0.20 91 1010.8
20260507084523 10 329 1.6 0.0 0.00 0.00 0.20 91 1010.8
20260507083019 10 336 1.6 0.0 0.00 0.00 0.20 92 1010.2
20260507081510 10 333 1.6 0.0 0.00 0.00 0.20 92 1010.3
20260507080009 10 334 1.6 0.0 0.00 0.00 0.20 92 1010.2
20260507074507 10 350 3.2 0.0 0.00 0.00 0.20 92 1010.1
20260507073006 10 340 3.2 0.0 0.00 0.00 0.20 92 1010.3
20260507071509 10 332 1.6 0.0 0.00 0.00 0.20 92 1010.7
20260507070013 10 329 3.2 0.0 0.00 0.00 0.20 91 1010.3
20260507064503 11 332 4.8 0.0 0.00 0.00 0.18 90 1010.4
20260507063101 11 314 4.8 0.0 0.00 0.00 0.15 90 1010.4
20260507061600 11 305 4.8 0.0 0.00 0.00 0.10 90 1010.7
20260507060059 11 336 1.6 0.0 0.00 0.00 0.10 91 1010.5
20260507054556 11 337 3.2 0.0 0.00 0.00 0.10 91 1010.6
20260507053058 12 324 3.2 0.0 0.00 0.00 0.10 91 1010.3
20260507051601 12 2 4.8 0.0 0.00 0.00 0.10 91 1010.3
20260507050106 12 329 3.2 0.0 0.00 0.00 0.10 91 1010.5
20260507044555 12 320 4.8 0.0 0.00 0.00 0.10 91 1011.2
20260507043049 12 333 1.6 0.0 0.00 0.00 0.10 91 1010.6
20260507041547 12 355 3.2 0.0 0.00 0.00 0.03 90 1009.9
20260507040048 13 317 6.4 0.0 0.00 0.00 0.48 89 1010.3
20260507034543 13 319 4.8 0.0 0.00 0.00 0.48 89 1010.2
20260507033045 13 331 6.4 0.0 0.00 0.00 0.48 88 1009.8
20260507031536 14 2 4.8 0.0 0.00 0.00 0.46 89 1009.8
20260507030038 14 324 6.4 0.0 0.00 0.00 0.43 88 1009.5
20260507024542 15 334 6.4 0.0 0.00 0.00 0.43 87 1009.2
20260507023033 15 305 3.2 0.0 0.00 0.00 0.43 88 1009.7
20260507021546 15 329 1.6 0.0 0.00 0.00 0.43 87 1009.4
20260507020033 15 327 6.4 0.0 0.00 0.00 0.43 86 1009.7
20260507014530 15 318 6.4 0.0 0.00 0.00 0.43 87 1009.2
20260507013035 15 314 6.4 0.0 0.00 0.00 0.43 88 1009.6
20260507011535 16 318 8.0 0.0 0.00 0.00 0.43 88 1009.2
20260507010039 17 350 6.4 0.0 0.00 0.00 0.43 90 1009.4
20260507004528 17 320 4.8 0.0 0.00 0.00 0.38 89 1009.1
20260507003027 18 331 8.0 0.0 0.00 0.00 0.38 87 1008.8
20260507001528 18 279 1.6 0.0 0.00 0.00 0.36 88 1008.5
20260507000032 18 240 1.6 0.0 0.00 0.00 0.36 86 1008.0
20260506234527 18 215 1.6 0.0 0.00 0.00 0.36 84 1007.9
20260506233025 18 220 0.0 0.0 0.00 0.00 0.36 82 1007.6
20260506231527 19 222 1.6 0.0 0.00 0.00 0.36 82 1007.4
20260506230026 19 226 1.6 0.0 0.00 0.00 0.36 81 1007.5
20260506224523 19 229 3.2 0.0 0.00 0.00 0.36 80 1007.5
20260506223128 20 222 4.8 0.0 0.00 0.00 0.36 79 1007.3
20260506221520 20 248 3.2 0.0 0.00 0.00 0.36 80 1007.3
20260506220029 19 231 3.2 0.0 0.00 0.00 0.36 80 1007.5
20260506214520 20 216 3.2 0.0 0.00 0.00 0.36 79 1007.3
20260506213027 19 212 4.8 0.0 0.00 0.00 0.36 81 1007.3
20260506211524 19 211 6.4 0.0 0.00 0.00 0.36 79 1007.1
20260506210023 20 279 6.4 0.0 0.00 0.00 0.36 77 1006.8
20260506204519 20 195 4.8 0.0 0.00 0.00 0.36 75 1006.7
20260506200011 19 246 4.8 0.0 0.00 0.00 0.36 80 1006.8
20260506194512 19 187 6.4 0.0 0.00 0.00 0.36 80 1006.8
20260506193014 19 227 6.4 0.0 0.00 0.00 0.36 78 1007.1
20260506191511 19 291 8.0 0.0 0.00 0.00 0.36 79 1007.2
20260506190009 19 225 6.4 0.0 0.00 0.00 0.36 81 1007.4
20260506184506 18 236 4.8 0.0 0.00 0.00 0.36 83 1007.4
20260506183006 18 301 6.4 0.0 0.00 0.00 0.36 83 1007.4
20260506181506 17 200 8.0 0.0 0.00 0.00 0.36 83 1007.6
20260506180008 17 256 6.4 0.0 0.00 0.00 0.36 85 1007.8
20260506174503 17 214 6.4 0.0 0.00 0.00 0.36 85 1007.7
20260506173003 17 212 6.4 0.0 0.00 0.00 0.36 86 1007.8
20260506171505 16 194 8.0 0.0 0.00 0.00 0.36 88 1007.9
20260506170001 16 201 8.0 0.0 0.00 0.00 0.36 88 1007.9
20260506164601 16 236 11.3 0.0 0.00 0.00 0.36 89 1007.9
20260506163104 16 218 9.7 0.0 0.00 0.00 0.36 89 1007.9
20260506161606 16 220 11.3 0.0 0.00 0.00 0.36 90 1007.9
20260506160101 15 205 9.7 0.0 0.00 0.00 0.33 90 1008.2
20260506154557 15 219 12.9 0.0 0.00 0.00 0.33 91 1007.9
20260506153055 15 188 11.3 0.0 0.00 0.00 0.33 92 1008.0
20260506151605 15 192 14.5 0.0 0.00 0.00 0.33 92 1008.4
20260506150052 15 219 9.7 0.0 0.00 0.00 0.33 92 1008.6
20260506144550 15 245 11.3 0.0 0.00 0.00 0.28 92 1008.9
20260506143053 15 215 11.3 0.0 0.00 0.00 0.28 91 1008.7
20260506141546 15 182 11.3 0.0 0.00 0.00 0.25 91 1008.5
20260506140053 15 220 8.0 0.0 0.00 0.00 0.23 91 1008.5
20260506134544 15 233 11.3 0.0 0.00 0.00 0.20 91 1008.8
20260506133043 15 208 8.0 0.0 0.00 0.00 0.18 91 1009.3
20260506131540 15 210 6.4 0.0 0.00 0.00 0.15 90 1008.9
20260506130037 15 224 4.8 0.0 0.00 0.00 0.10 89 1008.9
20260506124534 15 208 6.4 0.0 0.00 0.00 0.08 88 1008.7
20260506123031 16 201 8.0 0.0 0.00 0.00 0.03 84 1008.9
20260506121527 16 211 8.0 0.0 0.00 0.00 0.00 80 1008.9
20260506120024 16 213 8.0 0.0 0.00 0.00 0.00 78 1009.1
20260506114530 17 213 6.4 0.0 0.00 0.00 0.00 75 1009.1
20260506113021 17 218 8.0 0.0 0.00 0.00 0.00 76 1008.8
20260506111519 17 239 6.4 0.0 0.00 0.00 0.00 74 1008.7